Location: Launay
(47.2429°N, 1.5727°E)
Time: 22:20:40
(UTC+00:00)

Lacrosse 5 rocket - Pass Details

Date: 19 May 2025
Orbit: 419 x 517 km, 57.0° (Epoch: 12 June)

Event Time Altitude Azimuth Distance (km) Brightness Sun altitude
Rises 21:19:49 0° 305° (NW) 2,482 6.1 -14.8°
Reaches altitude 10° 21:22:01 10° 301° (WNW) 1,586 4.8 -15.0°
Maximum altitude 21:25:29 53° 224° (SW) 548 1.2 -15.3°
Enters shadow 21:26:41 33° 165° (SSE) 749 1.5 -15.4°
